Location: Banff
(51.1670°N, 115.5670°W)
Time: 00:18:33
(UTC-06:00)

Daily predictions for brighter satellites

Satellite Brightness Start Highest point End
(mag) Time Altitude Azimuth Time Altitude Azimuth Time Altitude Azimuth
H-2A R/B 4.5 00:02:48 10° NE 00:05:19 15° E 00:07:11 12° ESE
COS B Rocket 4.1 00:03:31 10° NNE 00:06:44 33° E 00:08:54 19° SE
ATLAS 5 CENTAUR R/B 4.4 00:03:09 10° WNW 00:07:35 27° NNW 00:12:22 10° NE
Cosmos 2221 Rocket 4.3 00:03:17 10° N 00:07:42 46° ENE 00:10:51 18° SE
Cosmos 1745 Rocket 4.0 00:01:55 10° S 00:08:11 86° W 00:14:24 10° N
Cosmos 192 4.3 00:04:38 10° NNW 00:09:35 88° ENE 00:13:10 19° SSE
Cosmos 2298 Rocket 4.2 00:04:30 10° SSW 00:09:50 79° WNW 00:15:12 10° NNE
Cosmos 2297 Rocket 3.1 00:07:31 17° SSE 00:10:56 32° ESE 00:15:53 10° NE
Cosmos 1703 Rocket 4.0 00:07:01 10° N 00:11:16 50° ENE 00:14:11 19° SE
Cosmos 1470 Rocket 3.5 00:09:03 14° S 00:12:42 89° WNW 00:17:03 10° N
CZ-4C R/B 4.0 00:06:39 10° NW 00:12:44 38° NNE 00:19:31 10° E
Cosmos 1933 Rocket 3.6 00:10:27 14° S 00:14:13 89° WSW 00:18:44 10° N
Cosmos 2219 Rocket 2.7 00:10:35 10° NW 00:15:58 49° WSW 00:20:07 17° S
Okean 1-7 4.0 00:12:21 10° N 00:16:22 37° ENE 00:19:09 17° SE
Cosmos 1709 Rocket 4.2 00:12:07 17° SSE 00:16:45 55° E 00:22:41 10° NNE
Cosmos 220 Rocket 4.0 00:15:38 13° SSW 00:19:30 78° ESE 00:23:58 10° NNE
COSMOS 2455 3.0 00:14:12 10° NW 00:20:16 77° NE 00:25:13 16° SE
GEOS 3 Rocket 3.6 00:16:47 17° SE 00:20:54 80° SW 00:26:07 10° NW
Cosmos 1703 4.0 00:18:15 10° SSW 00:22:00 50° WNW 00:25:50 10° N
Cosmos 1271 Rocket 4.4 00:18:58 10° NW 00:22:10 26° W 00:25:17 11° SSW
Cosmos 1937 Rocket 3.5 00:17:03 10° SSW 00:22:18 86° ESE 00:27:33 10° NNE
ATLAS 2AS CENTAUR R/B 3.5 00:19:58 15° S 00:25:54 42° ESE 00:33:20 10° NE
H-2A R/B 3.5 00:22:04 10° SSW 00:26:49 32° W 00:31:42 10° NNW
Cosmos 389 Rocket 3.5 00:24:17 10° N 00:27:41 37° ENE 00:29:41 20° SE
Cosmos 1980 4.1 00:24:17 10° NW 00:29:46 52° WSW 00:33:40 19° S
Cosmos 2181 Rocket 4.1 00:24:30 10° N 00:30:54 83° E 00:35:40 19° SSE
Cosmos 1269 Rocket 4.0 00:27:38 10° NNW 00:33:00 90° ENE 00:36:40 21° SSE
Cosmos 1933 3.3 00:29:38 10° N 00:33:43 88° ENE 00:36:08 24° S
Cosmos 2219 4.3 00:31:54 10° SW 00:37:26 46° NW 00:42:59 10° NNE
Cosmos 990 Rocket 3.9 00:33:28 14° SSW 00:37:58 85° ESE 00:43:10 10° NNE
Cosmos 2237 Rocket 2.8 00:37:43 10° NW 00:43:09 46° WSW 00:46:53 19° S
ATLAS 3B R/B 2.7 00:37:06 10° NW 00:44:16 78° SW 00:49:26 18° SSE
USA 238 DEB 4.0 00:39:10 10° NW 00:46:14 69° NE 00:53:15 10° SE
USA 238 4.0 00:39:16 10° NW 00:46:20 69° NE 00:53:20 10° ESE
Cosmos 2082 3.7 00:45:28 14° SSW 00:50:22 78° ESE 00:56:07 10° NNE
NOSS 3-1 (C) 3.8 00:45:12 10° SW 00:51:17 72° NW 00:58:11 10° NE
CZ-4B R/B 1.8 00:51:29 26° SE 00:53:14 59° ENE 00:56:38 10° N
Cosmos 1689 Rocket 2.5 00:59:16 30° SSE 01:00:43 67° ENE 01:04:01 10° N
Cosmos 1048 Rocket 4.2 00:58:21 10° NNW 01:03:40 66° WSW 01:06:58 23° S
Aureole 2 Rocket 2.8 01:00:50 10° NNW 01:03:45 47° ENE 01:05:16 25° SE
BREEZE-M TANK 3.5 00:53:27 10° WSW 01:04:08 45° S 01:07:28 10° ESE
Cosmos 1125 Rocket 3.6 01:03:09 21° S 01:06:40 69° ESE 01:11:59 10° NNE
Cosmos 1340 Rocket 4.2 01:08:03 20° SE 01:09:41 26° E 01:12:59 10° NE
Cosmos 1626 3.9 01:09:07 10° SW 01:12:18 27° WNW 01:15:33 10° N
Terra 4.2 01:11:07 10° WSW 01:13:15 13° W 01:15:24 10° WNW
In-Cosmos 22 Rocket 4.4 01:09:55 23° S 01:13:29 63° E 01:19:12 10° NNE
CZ-4C R/B 3.7 01:18:22 27° SSW 01:19:48 43° W 01:23:15 10° NNW
Cosmos 44 Rocket 4.4 01:17:56 23° SSE 01:20:01 30° ESE 01:24:33 10° NE
BREEZE-M DEB (TANK) 2.5 01:19:50 33° SSE 01:20:03 33° SSE 01:24:31 10° E
USA 234 3.5 01:13:35 10° ESE 01:20:07 75° NNE 01:26:40 10° WNW
SeaSat 1 3.7 01:18:03 18° SSW 01:20:34 28° WSW 01:24:48 10° NW
Cosmos 1869 Rocket 3.8 01:18:55 22° SSW 01:21:42 69° WNW 01:26:12 10° N
ALOS 2 2.9 01:21:24 26° S 01:23:43 57° W 01:28:04 10° NNW
Coronas F rocket 3.1 01:24:35 20° ESE 01:25:01 20° E 01:27:09 10° NE
Lacrosse 4 Rocket 2.1 01:21:05 10° NW 01:25:17 44° WSW 01:27:15 27° S
Cosmos 1733 Rocket 3.8 01:23:10 24° SSE 01:25:24 41° E 01:29:37 10° NNE
Cosmos 2227 Rocket 2.7 01:21:29 10° SW 01:27:05 61° NW 01:32:45 10° NNE
Cosmos 2333 Rocket 4.0 01:23:50 10° NW 01:27:53 20° W 01:31:11 13° SW
SL-16 R/B 2.9 01:29:03 10° NW 01:34:19 40° WSW 01:37:24 22° SSW
Meteor 1-27 Rocket 4.5 01:29:31 10° N 01:35:17 50° ENE 01:39:47 16° SE
Cosmos 2263 Rocket 4.3 01:34:36 10° ESE 01:36:46 12° E 01:38:57 10° ENE
ERBS 2.4 01:37:13 31° SSW 01:38:38 58° SE 01:42:04 10° ENE
Landsat 5 4.0 01:36:55 26° SSW 01:39:14 53° W 01:43:42 10° NNW
Cosmos 1356 Rocket 4.1 01:39:15 25° SSE 01:41:04 39° E 01:44:52 10° NNE
ASTEX 1 3.4 01:36:12 10° N 01:41:06 77° W 01:44:02 24° SSW
H-2A R/B 2.7 01:37:11 10° N 01:41:17 67° WNW 01:43:49 23° SSW
Cosmos 158 Rocket 4.3 01:39:32 10° NNW 01:44:46 56° WSW 01:47:41 25° S
NOSS 3-2 (A) 4.2 01:37:36 10° NW 01:44:50 72° NE 01:52:43 10° SE
Cosmos 372 Rocket 4.0 01:42:07 23° SSW 01:45:29 85° ESE 01:50:46 10° NNE
NOSS 2-3 (D) 4.3 01:45:41 25° SSW 01:48:33 54° SE 01:54:19 10° NE
Nadezhda 3 Rocket 4.0 01:43:29 10° N 01:49:43 84° E 01:54:00 22° SSE
Cosmos 1238 Rocket 3.4 01:45:22 10° N 01:49:52 52° ENE 01:52:02 23° SE
Cosmos 2297 Rocket 2.8 01:49:17 10° SW 01:54:44 54° NW 02:00:19 10° NNE
Cosmos 1610 Rocket 4.4 01:51:25 23° S 01:55:30 90° WNW 02:01:41 10° N
Cosmos 2074 Rocket 4.2 01:51:28 20° SSW 01:55:58 66° WNW 02:02:16 10° N
CZ-2C R/B 3.4 01:52:39 19° SSE 01:56:51 76° ENE 02:02:28 10° NNW
Meteor 2-6 Rocket 4.3 01:53:08 10° NNW 01:58:56 87° WSW 02:02:51 22° S
Cosmos 1943 3.4 01:54:30 10° NNW 02:00:13 70° ENE 02:05:21 13° SE
Cosmos 1606 2.9 01:57:18 10° N 02:01:09 64° ENE 02:03:12 26° SSE
CZ-2C R/B 2.6 01:56:44 10° NNE 02:02:01 71° ESE 02:05:09 24° S
CZ-4C R/B 2.8 01:55:12 10° NW 02:02:05 90° ENE 02:09:46 10° SE
Cosmos 389 Rocket 4.5 01:59:48 10° NW 02:02:23 19° W 02:03:46 15° WSW
Cosmos 2251 Rocket 3.9 01:58:38 10° NNW 02:03:49 52° WSW 02:06:46 24° S
COSMOS 2455 4.2 02:00:53 10° NW 02:05:38 25° WSW 02:08:21 18° SW
Meteor 2-10 Rocket 4.0 02:01:21 10° NNW 02:06:41 54° W 02:10:06 23° SSW
Cosmos 1603 4.0 02:02:23 10° NW 02:07:54 53° WSW 02:11:15 23° S
Cosmos 1674 Rocket 3.8 02:04:20 10° NNW 02:08:42 61° W 02:11:00 27° SSW
Helios 1A Rocket 3.3 02:08:06 10° N 02:12:13 58° WNW 02:14:39 23° SW
Geosat 4.0 02:08:47 10° NNE 02:13:51 83° WNW 02:17:26 20° SW
Cosmos 1867 3.9 02:10:53 10° NW 02:16:23 67° NE 02:21:49 10° SE
ATLAS 2AS CENTAUR R/B 3.4 02:08:54 10° SW 02:16:39 70° NW 02:24:50 10° NE
Cosmos 1975 Rocket 3.4 02:13:02 10° N 02:17:26 60° ENE 02:20:21 20° SSE
Cosmos 2154 Rocket 4.0 02:17:20 22° SSW 02:21:39 82° W 02:28:00 10° N
Cosmos 1892 3.4 02:21:53 23° SW 02:23:52 44° WNW 02:27:32 10° N
CZ-4B R/B 3.9 02:25:15 11° WSW 02:26:25 13° W 02:28:00 10° WNW
Cosmos 1607 4.1 02:22:13 10° NW 02:28:11 54° WSW 02:32:34 19° SSE
Cosmos 1908 Rocket 3.5 02:26:34 26° S 02:28:58 82° E 02:33:20 10° NNE
Cosmos 921 Rocket 3.0 02:28:04 27° S 02:30:16 71° ESE 02:34:29 10° NNE
Cosmos 1782 3.7 02:29:54 10° NNW 02:33:32 35° W 02:35:18 23° SW
ATLAS 3B R/B 4.1 02:29:10 10° WNW 02:33:51 20° WSW 02:36:40 15° SW
Cosmos 44 3.9 02:31:46 23° S 02:34:56 52° ESE 02:40:15 10° NE
USA 238 DEB 4.4 02:30:32 10° NW 02:36:52 37° WSW 02:41:01 20° S
USA 238 4.4 02:30:38 10° NW 02:36:59 38° WSW 02:41:09 20° S
Cosmos 2084 Rocket 3.2 02:38:11 27° SSW 02:40:03 60° SE 02:43:49 10° NE
PSLV R/B 4.3 02:38:14 26° SSW 02:40:16 50° W 02:44:15 10° NNW
EROS-A1 3.9 02:44:27 51° WSW 02:44:35 52° WSW 02:46:46 10° NNW
Sich 1 Rocket 4.0 02:42:45 22° SSW 02:45:28 56° WNW 02:49:57 10° N
Cosmos 1340 Rocket 4.1 02:43:42 17° WSW 02:46:05 31° WNW 02:49:39 10° N
Iridium 4 Rocket 4.1 02:43:45 10° N 02:48:05 45° E 02:52:20 12° SSE
Cosmos 1184 Rocket 4.2 02:46:42 18° SSE 02:48:37 31° E 02:51:39 10° NNE
Cosmos 2341 Rocket 4.2 02:45:54 20° SSW 02:50:32 65° WNW 02:56:54 10° N
NOSS 2-3 (E) 4.5 02:46:05 12° WSW 02:50:50 67° NW 02:57:04 10° NE
ERS-2 4.4 02:48:52 10° NE 02:51:28 18° E 02:54:03 10° SE
Uosat 12 SS-18 rocket 4.1 02:48:51 19° SW 02:52:21 86° NW 02:56:45 10° NE
RESURS DK-1 4.2 02:50:29 14° SSE 02:52:53 22° ESE 02:56:05 10° ENE
Cosmos 1825 2.1 02:52:05 26° SSW 02:54:10 83° W 02:58:00 10° N
SL-16 R/B 4.4 02:51:26 10° ESE 02:56:41 30° ENE 03:01:55 10° N
Coronas F rocket 3.5 02:55:41 15° W 02:56:48 18° WNW 02:58:47 10° NNW
Cosmos 1408 2.7 02:58:48 25° SSW 03:00:55 71° WNW 03:04:42 10° N
Cosmos 44 Rocket 3.9 02:56:38 13° WSW 03:01:19 60° NW 03:06:33 10° NE
USA 234 3.4 02:57:02 10° SE 03:03:22 51° SW 03:09:44 10° WNW
Elektron 3 3.8 03:01:22 10° NW 03:04:14 72° SW 03:08:16 10° SE
NOSS 3-2 (C) 4.1 03:03:39 10° NW 03:10:52 59° SW 03:18:38 10° SSE
CENTAUR R/B 3.5 03:05:08 10° NW 03:12:39 67° NE 03:20:49 10° ESE
SL-8 Rocket 4.1 03:09:34 18° SSW 03:14:24 70° WNW 03:20:45 10° N
Okean 3 4.4 03:10:35 10° NNW 03:14:28 34° W 03:16:55 19° SW
ERBS 3.7 03:12:18 10° W 03:15:37 39° NNW 03:18:55 10° NE
Cosmos 1339 Rocket 4.4 03:10:48 10° N 03:16:57 86° W 03:22:33 12° S
Cosmos 2218 Rocket 4.1 03:13:33 18° SSW 03:18:27 77° W 03:24:50 10° N
Cosmos 2263 Rocket 2.4 03:15:21 18° SSW 03:19:37 67° ESE 03:25:18 10° NE
COSMOS 2406 3.4 03:13:49 10° NNW 03:19:39 77° ENE 03:25:25 10° SE
Cosmos 1862 4.2 03:17:33 18° SW 03:20:06 38° WNW 03:23:54 10° N
Cosmos 1190 Rocket 4.0 03:15:54 10° NNW 03:21:12 86° ENE 03:26:25 10° SSE
SL-08 R/B 3.4 03:20:40 10° SSE 03:25:35 89° ENE 03:30:32 10° NNW
Okean 2 Rocket 3.5 03:24:54 18° SSW 03:28:05 52° WNW 03:32:31 10° N
JB-3 4.2 03:25:41 10° NNE 03:29:33 82° WNW 03:32:20 18° SSW
Meteor 1-14 Rocket 4.4 03:25:22 16° S 03:30:20 87° E 03:36:16 10° NNE
Cosmos 1371 Rocket 4.2 03:27:44 16° SSW 03:32:00 71° ESE 03:37:21 10° NNE
Cosmos 2056 Rocket 4.0 03:29:04 14° S 03:33:26 56° ESE 03:38:33 10° NNE
NOSS 3-2 (A) 4.5 03:28:46 10° NW 03:35:31 39° WSW 03:42:43 10° S
Cosmos 2366 rocket 4.1 03:31:13 16° SSW 03:36:14 66° WNW 03:42:27 10° N
NOSS 3-4 (A) 3.6 03:32:22 15° SSW 03:37:45 75° SE 03:44:26 10° NE
NOSS 3-4 (C) 3.6 03:32:28 15° SSW 03:37:52 74° SE 03:44:31 10° NE
OPS 6431 4.5 03:35:22 10° NW 03:38:36 80° SW 03:41:33 10° SE
Cosmos 407 Rocket 3.4 03:33:44 10° NNW 03:38:55 85° WSW 03:44:06 10° SSE
ATLAS 5 CENTAUR R/B 3.5 03:34:29 10° NW 03:39:59 46° NNE 03:45:56 10° ESE
AQUA 4.1 03:35:51 10° NNE 03:40:37 64° ESE 03:44:56 12° S
CZ-2C R/B 4.3 03:37:48 10° N 03:41:49 22° WNW 03:45:46 10° WSW
SL-27 R/B 2.6 03:38:53 10° NNW 03:42:32 80° ENE 03:46:13 10° SSE
Meteor 2-19 Rocket 4.5 03:37:53 14° S 03:43:19 85° W 03:49:33 10° N
Cosmos 1943 4.5 03:39:20 10° NW 03:43:45 24° WSW 03:47:08 14° SW
Cosmos 676 Rocket 4.1 03:39:11 10° NNW 03:44:26 84° ENE 03:49:37 10° SSE
IRS-P3 4.2 03:39:27 10° NNE 03:44:51 88° WNW 03:49:36 13° SSW
CZ-4C R/B 3.8 03:44:22 10° WNW 03:50:10 28° WSW 03:56:17 10° SSW
USA 161 2.0 03:47:46 10° SSE 03:50:32 59° ENE 03:53:28 10° N
PSLV R/B 4.2 03:48:42 10° N 03:52:43 43° WNW 03:56:09 13° SW
Cosmos 1242 Rocket 3.5 03:49:57 10° NNW 03:53:05 31° W 03:55:23 15° SSW
Meteor 1-18 Rocket 4.4 03:48:06 10° NNW 03:53:38 59° W 03:59:13 10° S
Cosmos 724 4.4 03:51:53 10° NW 03:57:56 69° SW 04:04:04 10° SSE
Resurs 1-4 Rocket 3.5 03:55:34 10° NNE 04:00:25 34° E 04:05:12 10° SSE
BREEZE-M R/B 4.5 03:51:39 10° W 04:01:35 88° S 04:07:20 10° E
Cosmos 1300 Rocket 3.6 04:00:49 10° S 04:05:08 78° E 04:09:32 10° NNE
Cosmos 1536 Rocket 4.4 04:03:02 10° NNW 04:06:58 34° W 04:10:39 12° SSW
ATLAS 2AS CENTAUR R/B 4.5 04:01:45 10° W 04:09:04 37° NNW 04:16:34 10° NE
CBERS 1 LM4 rocket 4.5 04:04:45 10° NNE 04:09:49 86° ESE 04:14:40 10° SSW
Cosmos 1954 Rocket 3.9 04:07:54 10° NNW 04:13:05 75° WSW 04:18:14 10° SSE
Cosmos 1633 4.4 04:13:47 10° SSE 04:16:55 28° E 04:20:04 10° NNE
Cosmos 1624 Rocket 4.2 04:13:21 11° SW 04:18:21 65° WNW 04:23:36 10° NNE
EO 1 Del DPAF 3.4 04:14:31 10° SSE 04:18:25 82° ENE 04:22:20 10° NNW
Cosmos 909 Rocket 4.4 04:12:58 11° SW 04:19:21 86° SE 04:27:13 10° NE
Okean 1 3.8 04:16:06 10° NNW 04:19:54 43° W 04:23:41 10° SSW
Cosmos 1812 3.5 04:17:35 10° NNW 04:21:11 36° W 04:24:45 10° SSW
Abrixas rocket 3.6 04:21:09 11° SSW 04:23:50 26° SSE 04:26:42 10° E
NPP 4.1 04:19:08 10° N 04:24:22 53° WNW 04:29:35 10° SW
Okean 1-7 Rocket 3.9 04:20:22 10° NNW 04:24:49 52° W 04:29:15 10° S
Meteor 1-11 Rocket 4.3 04:19:13 10° S 04:25:04 65° E 04:31:00 10° NNE
ERS-2 2.7 04:21:56 10° N 04:25:30 45° WNW 04:29:04 10° SW
Meteor 1-13 Rocket 4.3 04:19:53 10° NNW 04:25:30 71° W 04:31:13 10° S
ADEOS 3.6 04:22:02 10° NNE 04:27:18 77° WNW 04:32:30 10° SSW
RESURS DK-1 2.9 04:26:35 10° SW 04:30:39 51° NW 04:34:45 10° NNE
COSMOS 2487 2.6 04:27:10 10° NNW 04:30:49 83° ENE 04:34:26 10° SSE
Cosmos 1400 Rocket 4.4 04:27:50 10° SSE 04:31:20 32° E 04:34:52 10° NNE
Cosmos 1934 Rocket 4.1 04:25:30 10° S 04:31:46 90° NW 04:37:57 10° N
ARIANE 5 R/B 2.6 04:27:41 10° NNE 04:32:43 77° ESE 04:37:42 10° S
Cosmos 614 Rocket 4.2 04:30:18 10° NNW 04:35:32 79° ENE 04:40:41 10° SSE
Cosmos 1833 Rocket 4.4 04:30:59 10° NNW 04:36:15 39° NE 04:41:30 10° ESE
Okean O Rocket 3.4 04:33:59 10° NE 04:37:46 28° E 04:41:31 10° SSE
MTI 3.9 04:34:37 10° SSE 04:37:55 82° ENE 04:41:14 10° NNW
Cosmos 1452 Rocket 3.6 04:34:21 10° SSW 04:39:36 85° ESE 04:44:54 10° NNE
SL-16 R/B 2.6 04:33:42 10° S 04:39:55 67° WSW 04:46:08 10° NNW
Okean 1 Rocket 3.4 04:38:11 10° SSW 04:42:31 52° WNW 04:46:55 10° N
SME Rocket 3.0 04:41:45 10° S 04:45:26 62° WSW 04:49:46 10° NNW
Thor Agena Rocket 4.5 04:40:25 10° SE 04:45:27 53° ENE 04:50:26 10° N
